Find Starlink 11433

NORAD ID: 62008 Int'l Des: 2024-213 Owner: SPXS Country: US Constellation: starlink operational
LEOCIRCULAR

現在のビュー

3D地球を読み込み中...

About Starlink 11433

Starlink 11433 (NORAD 62008) is a starlink constellation satellite (v2 mini d2c) launched Nov 18, 2024 by SPXS of US. It operates in LEO, CIRCULAR orbit with a mass of 960.00 kg.

Starlink 11433について

説明を読み込み中...

次回通過

Passes for default location (London). Set your location on the main map for personalized predictions.

高度履歴

Loading altitude history...

軌道要素

1 62008U 24213A 26195.55810320 .00110017 00000-0 89948-3 0 9996
2 62008 53.1591 135.6725 0001119 76.5417 283.5725 15.69749256 94844
Epoch: Jul 14, 2026 • Age: 6 hours

現在のステータス

高度 363.2 km
遠地点 / 近地点 N/A
速度 7.69 km/s
衛星直下点 -13.80°S, 100.29°W
打ち上げ日 Nov 18, 2024
運用期間 1.6 years
タイプ internet

技術仕様

分類 Payload
質量 960.00 kg
乾燥質量 910.00 kg
総質量 960.00 kg
長さ 0.30 m
直径 4.10 m
スパン 29.00 m
形状 Box + pan
製造者 SPXS
バスタイプ Starlink V2MD
フェーズステータス In Orbit
所有者/国 SPXS/US

Most Searched